Theta_e
337 339 340 342 341 339 337 338 334 331 329 333 335 336 336 340 343 343 344 344 343 343 343 343 341 341 339 336 331 327 326 325 325 326 326 328 327 327 327 327 325 325 324
340 340 345 344 344 339 336 336 340 338 333 330 334 334 338 340 341 341 343 343 343 344 345 344 342 342 340 340 340 339 335 330 329 327 326 327 328 327 327 327 331 333 328
341 342 344 345 344 343 340 338 341 344 342 335 330 335 343 343 340 339 343 345 344 344 344 344 342 343 342 342 341 340 340 341 340 336 335 335 333 330 328 327 329 336 336
343 344 343 344 344 344 344 343 342 342 344 343 339 335 341 341 343 344 344 343 344 344 344 343 342 343 343 342 343 344 340 340 341 342 342 340 337 338 337 336 334 330 330
344 344 344 342 342 344 344 343 344 345 343 343 343 343 342 343 344 344 345 344 344 344 344 344 344 344 343 343 343 344 344 343 343 340 340 340 341 340 341 339 338 337 337
341 343 342 341 341 342 343 342 342 344 343 343 344 343 342 342 343 344 343 342 342 344 342 342 344 345 344 343 343 343 344 343 344 343 340 340 339 340 341 341 340 340 339
341 344 341 341 342 341 341 342 342 342 341 341 342 342 342 339 340 343 343 343 343 341 341 342 342 342 343 343 343 343 344 343 340 340 344 344 341 340 339 341 341 340 340
344 344 342 341 342 344 342 341 341 341 341 342 340 342 342 339 338 340 341 341 342 342 342 342 343 343 342 339 341 343 344 344 341 342 343 344 343 341 340 341 341 340 341
342 343 342 343 343 344 343 339 340 342 341 341 341 340 341 339 338 339 340 341 341 342 342 341 340 340 341 342 342 343 344 343 342 343 343 342 341 340 341 342 341 341 341
340 342 340 342 343 343 343 343 340 339 340 340 340 340 340 339 338 340 340 340 340 341 341 340 339 341 341 342 341 341 341 341 340 341 341 340 341 343 342 342 341 341 341
341 338 338 337 339 342 342 344 343 339 341 340 340 341 340 339 338 340 340 340 339 339 340 340 339 338 335 336 338 340 340 339 339 340 340 338 338 339 343 342 341 341 340
339 334 334 339 341 342 343 345 344 342 338 339 339 339 338 338 339 339 340 339 339 339 339 340 341 337 336 335 338 340 339 339 340 341 341 340 339 339 340 341 341 340 340
336 338 336 337 341 342 342 342 342 341 339 337 339 340 340 340 340 340 340 340 340 340 341 342 338 337 337 339 340 340 340 340 341 341 341 341 340 340 340 340 340 339 337
337 341 339 335 335 336 339 340 340 339 339 339 339 340 340 339 339 342 343 341 341 341 341 341 339 340 339 339 339 338 339 339 339 340 341 340 340 340 339 339 337 336 337
337 341 342 340 337 334 332 332 334 336 337 339 340 337 336 336 335 337 343 343 343 341 341 338 340 341 339 339 338 337 338 337 338 339 339 339 338 338 338 337 336 335 338
336 340 341 339 336 337 336 333 333 334 334 335 335 337 337 337 338 337 336 337 339 341 341 339 336 339 339 338 339 337 338 337 337 337 337 337 337 337 337 336 335 335 337
339 338 342 340 337 338 339 338 337 336 336 337 336 334 334 333 333 336 335 337 338 337 337 337 338 339 340 339 338 336 337 335 335 335 335 335 335 335 335 334 334 336 337
340 340 341 342 342 342 339 338 337 337 337 336 337 338 338 336 335 336 338 337 335 337 334 334 333 335 336 339 338 337 336 335 335 334 334 334 335 334 333 333 333 334 335
341 337 341 341 342 339 338 339 337 338 337 335 335 337 337 337 335 336 336 336 337 337 337 337 334 332 336 339 337 336 336 335 334 334 334 334 333 331 331 331 332 333 331
340 339 341 339 340 338 337 339 337 338 338 336 337 336 336 336 335 335 333 336 337 335 337 339 339 338 339 339 337 337 336 335 335 334 333 332 330 330 329 328 328 328 327
341 341 341 341 337 334 338 336 337 337 338 337 336 336 333 336 335 335 335 335 333 327 331 338 336 337 338 338 337 336 335 334 333 332 332 331 330 328 327 326 325 324 324
332 336 339 339 338 337 336 338 338 337 337 338 339 337 333 334 336 335 332 326 327 333 335 335 337 337 337 338 337 335 335 335 333 333 332 331 330 328 327 325 324 323 323
331 330 329 338 342 339 339 340 339 339 339 338 338 338 335 334 334 335 333 331 332 335 335 334 335 336 337 337 336 336 335 334 333 333 332 331 330 328 327 325 324 324 323
340 331 330 329 334 342 339 340 340 340 340 339 338 337 336 335 334 334 334 331 331 333 333 333 332 333 333 336 337 336 335 334 333 332 332 331 330 330 328 326 326 325 323
345 335 329 329 327 338 340 339 340 341 341 339 338 336 336 334 334 333 332 330 329 332 333 332 331 332 333 335 334 333 334 334 333 332 331 331 331 331 330 329 328 327 326
347 331 330 332 328 337 331 335 339 341 341 339 338 335 334 335 334 333 332 330 330 331 328 331 331 331 332 332 332 333 333 332 330 330 330 330 330 330 329 329 328 329 328
Wind_Speed
16 15 14 13 12 12 12 14 14 16 18 19 18 18 18 19 17 15 11 9 10 8 7 8 8 8 8 9 10 10 11 11 11 12 12 12 11 10 10 10 10 10 10
16 16 15 14 14 13 13 13 13 15 17 19 20 19 18 19 18 17 14 13 12 10 10 8 9 9 10 11 11 12 12 13 12 12 13 13 13 12 12 12 12 12 11
18 18 17 17 16 14 13 14 16 15 15 18 20 22 18 16 19 20 17 12 15 12 10 13 11 11 11 12 14 14 14 14 14 14 15 14 14 14 13 13 14 13 14
20 18 19 18 17 17 17 16 17 16 17 17 17 22 20 19 19 20 21 17 15 15 15 13 14 15 14 15 15 15 16 16 16 16 16 16 16 17 16 15 16 16 16
21 20 19 18 19 20 21 20 19 19 17 18 18 17 20 21 21 20 19 18 16 16 16 15 17 16 17 17 18 19 17 18 18 17 17 17 18 18 18 18 18 19 19
20 21 20 19 19 20 22 23 22 21 19 18 18 17 15 17 19 19 19 19 19 18 18 18 18 20 20 22 22 23 22 21 19 20 18 17 19 21 21 19 19 20 19
19 19 17 19 21 23 24 22 23 22 20 20 20 18 17 16 21 22 21 21 20 20 20 21 23 24 25 26 27 25 25 23 24 25 26 23 22 22 24 22 20 19 17
18 20 21 21 23 24 26 25 25 24 23 23 21 17 18 20 21 24 24 24 24 23 23 24 27 27 29 28 25 24 26 26 25 25 25 26 24 24 22 23 21 19 17
17 18 20 21 23 25 27 31 29 24 25 23 21 18 8 11 13 20 26 27 27 26 24 25 26 26 24 22 24 26 27 26 24 22 23 21 19 20 21 21 20 19 17
14 15 17 18 22 27 30 31 29 29 25 23 22 23 23 20 13 11 17 24 26 27 25 22 22 19 17 15 15 16 17 21 22 21 21 17 17 16 18 18 19 18 17
12 13 15 17 20 21 25 29 31 30 22 20 21 22 24 26 26 23 18 17 19 18 20 18 19 17 15 14 15 17 17 16 16 15 16 18 16 16 17 19 19 17 15
11 11 11 12 13 13 16 22 27 27 29 22 19 21 22 24 26 27 29 31 30 28 26 24 23 20 18 19 19 17 16 15 13 12 11 13 14 14 15 15 15 13 12
8 7 7 7 6 6 8 9 11 20 23 26 22 21 23 26 28 29 28 29 29 27 25 24 20 21 20 17 16 14 12 10 8 7 8 8 10 11 10 10 10 9 9
8 8 7 5 5 4 5 6 9 10 13 17 21 22 23 21 20 24 30 32 28 28 24 21 19 17 15 16 14 11 9 8 7 5 5 6 7 8 8 9 9 9 9
11 9 8 8 8 8 7 7 6 8 12 15 15 15 17 17 17 17 19 25 21 11 13 13 17 17 16 12 8 10 8 6 6 6 6 7 7 8 9 10 9 9 10
12 10 8 8 7 7 8 8 9 10 10 10 12 12 14 13 15 16 17 16 16 16 15 13 14 13 13 10 12 10 7 5 5 5 5 6 7 7 8 8 8 9 12
10 9 8 8 8 8 9 10 10 12 13 12 13 13 12 10 8 9 11 12 14 15 17 18 16 14 13 13 15 13 9 7 8 8 7 6 6 7 8 8 8 10 14
11 10 10 10 11 12 12 11 10 10 10 10 10 11 11 11 13 12 11 13 14 15 16 16 14 13 17 17 19 16 10 11 10 10 9 7 7 8 9 9 10 12 12
11 9 10 12 12 14 15 14 13 12 10 9 11 12 12 12 9 9 10 12 13 13 16 18 17 17 20 19 19 13 11 12 13 11 10 9 9 9 9 11 12 12 11
10 10 10 12 13 14 14 14 15 14 15 12 10 10 12 14 11 12 12 10 10 11 14 15 19 19 20 19 22 18 15 15 14 11 10 10 10 10 10 11 11 13 13
13 14 16 15 15 18 17 16 14 13 14 14 14 11 12 13 12 12 9 11 12 11 11 11 15 18 18 22 24 18 15 14 13 12 11 12 11 11 11 10 11 10 10
6 12 19 21 21 21 21 19 17 17 14 15 15 14 11 12 13 12 8 8 9 5 4 4 8 11 11 15 21 20 18 17 16 16 13 13 13 13 12 12 12 11 11
14 19 23 25 24 22 22 20 19 20 19 17 16 15 13 11 13 12 9 5 5 5 6 5 5 6 10 12 16 23 21 17 16 11 9 12 13 13 14 13 14 13 12
27 22 22 27 28 26 25 25 23 23 23 20 18 16 14 13 11 11 9 7 7 8 8 7 7 9 9 9 13 17 17 17 17 14 11 8 9 10 12 13 15 15 13
29 25 25 29 30 30 27 27 26 26 24 22 18 18 17 15 12 10 8 6 7 8 9 8 8 8 8 7 8 11 15 15 18 16 13 13 10 7 8 11 13 13 12
32 27 22 35 32 35 25 29 31 29 27 24 19 19 17 16 13 10 8 6 6 4 5 9 8 7 9 7 7 9 12 15 16 14 15 15 14 12 11 13 14 15 13
Wind_Direction
206 203 203 203 200 202 202 200 197 200 205 206 210 213 216 213 219 227 230 234 238 233 253 239 243 243 239 244 244 242 242 243 243 244 244 245 245 242 242 245 246 250 248
213 212 213 208 209 208 209 208 203 207 210 213 213 213 212 218 225 229 235 236 239 248 253 256 250 251 249 249 250 250 247 246 246 249 250 252 248 248 246 247 248 252 252
214 215 216 218 215 210 206 207 208 211 211 215 218 213 220 227 233 238 238 246 239 241 249 253 266 264 263 262 258 255 254 252 251 250 253 256 254 250 250 253 251 254 258
220 220 223 224 220 217 216 213 213 218 220 219 218 222 232 236 239 242 236 244 242 247 252 261 262 267 270 269 269 266 255 256 257 256 257 257 259 255 254 257 258 257 257
226 229 229 229 226 225 224 221 223 226 223 225 226 232 238 240 240 237 243 246 249 245 255 257 264 266 270 271 271 271 266 259 257 253 257 260 260 263 259 257 259 259 257
224 230 229 231 234 231 235 233 232 230 232 230 234 239 241 240 239 240 241 245 247 250 257 261 263 267 272 273 273 273 269 266 263 256 256 259 262 262 262 259 261 260 260
230 228 233 235 236 235 238 240 243 240 239 237 238 240 245 252 248 242 248 250 250 251 258 265 270 272 277 278 274 268 267 263 270 261 258 263 266 267 257 256 258 257 259
236 244 247 244 246 243 241 244 244 241 234 238 240 245 257 262 253 246 248 249 253 259 264 270 273 272 279 279 271 266 261 263 270 265 264 267 270 262 253 253 252 254 258
239 247 253 250 250 245 244 241 239 243 243 235 230 231 231 242 261 256 251 253 255 256 263 265 272 275 279 278 269 268 261 263 267 263 260 265 270 256 245 247 250 251 255
247 257 257 263 260 254 247 242 240 238 241 234 230 236 239 253 267 274 262 251 251 253 259 262 269 275 276 271 273 272 264 266 266 267 266 262 257 246 240 246 244 244 251
256 262 270 274 275 265 256 247 232 225 229 236 242 245 252 256 257 251 260 262 258 255 259 262 270 270 266 276 275 273 272 274 273 270 261 252 248 244 241 248 240 243 245
251 262 278 285 282 276 263 244 239 239 223 237 251 253 255 256 258 257 257 260 263 266 265 272 267 262 267 273 280 278 279 279 276 273 266 253 247 238 241 237 233 235 239
245 256 286 296 301 269 261 252 244 247 221 234 245 260 266 265 265 264 262 262 263 265 265 268 257 263 270 273 276 277 277 273 270 264 251 234 230 226 223 224 222 224 222
223 246 249 264 259 245 237 240 241 244 239 248 254 260 265 268 267 269 258 255 253 258 260 251 258 260 262 266 274 275 264 255 254 245 231 219 208 204 205 208 204 201 192
219 244 248 252 246 232 230 222 218 223 235 237 243 253 260 267 278 275 275 257 263 247 225 264 262 270 270 254 242 265 259 249 230 220 216 215 212 204 192 182 181 192 185
226 241 251 246 242 235 236 237 237 236 236 233 241 256 260 267 270 275 274 268 272 268 261 266 277 285 273 248 237 251 244 208 195 170 166 174 175 181 186 192 196 193 186
242 251 261 265 266 262 252 248 246 240 238 238 246 253 257 260 266 270 280 279 268 267 264 269 274 277 265 248 244 236 246 203 194 194 194 195 203 203 200 189 179 172 171
239 257 261 263 268 265 261 260 253 246 247 250 247 249 248 253 260 260 266 268 266 255 269 271 264 266 270 254 241 232 227 213 208 209 208 202 206 192 188 187 172 169 183
237 235 242 255 260 258 252 242 243 242 243 261 254 253 241 242 252 261 275 267 262 260 262 260 263 262 257 245 228 223 216 211 209 211 217 212 203 190 180 170 167 174 184
228 245 260 267 266 256 245 243 246 246 245 251 257 252 255 242 237 262 266 249 254 264 266 260 253 251 246 239 226 226 222 222 220 218 217 212 205 199 192 186 189 193 205
209 229 232 237 247 244 243 245 238 248 254 258 254 253 250 241 255 273 270 272 267 254 258 255 250 246 246 231 220 226 217 220 224 223 220 218 214 208 203 204 210 212 220
225 243 247 242 228 232 233 231 235 242 247 254 261 253 247 235 246 265 271 267 253 229 224 265 259 230 238 237 229 219 228 222 224 223 223 222 217 215 214 216 219 223 227
236 279 276 254 240 236 229 238 243 254 258 262 257 254 246 241 247 254 255 260 218 210 230 239 251 264 254 258 242 228 225 230 234 232 228 230 224 225 227 226 230 238 239
240 273 271 262 256 241 232 232 238 250 257 259 258 243 239 247 232 245 252 232 212 202 225 239 242 243 255 242 240 240 238 236 237 245 237 235 236 240 234 237 240 241 245
254 262 256 260 266 244 242 235 233 243 254 255 254 241 240 232 225 224 234 226 206 213 219 229 238 232 243 241 225 219 233 235 238 246 246 250 255 261 255 254 241 246 248
260 255 261 261 273 247 236 245 234 234 244 247 247 239 226 217 213 218 221 225 199 193 212 212 228 231 228 230 219 218 222 231 234 243 249 253 260 248 259 248 250 245 246